SCP
0 0 0 0 0 1 1 1 1 0 1 1 1 1 1 1 0 0 0 0 1 1 1 1 1 1 1 0 0 0 1 1 1 1 1 0 0 0 0 0 0 0 1
1 0 0 0 0 1 1 1 1 0 1 1 1 1 1 1 0 0 0 0 1 1 0 1 1 1 1 0 1 1 1 1 1 1 1 1 0 0 0 0 0 0 0
1 1 0 0 1 1 1 1 0 0 1 1 1 1 1 1 1 1 1 1 1 1 0 0 0 0 0 0 1 1 1 1 1 1 1 1 1 1 1 1 1 1 1
1 1 0 0 1 1 1 0 0 0 1 1 1 1 1 1 1 1 1 1 1 1 1 0 0 0 0 1 1 1 1 1 1 1 1 1 2 1 1 1 1 1 1
0 0 0 0 1 1 1 0 0 0 1 1 1 1 1 1 1 1 1 1 1 1 1 1 1 1 1 1 1 1 1 1 1 1 1 2 2 2 2 2 2 2 1
1 1 1 1 1 1 1 1 0 0 1 1 1 1 1 1 1 1 1 1 1 1 1 1 1 1 1 1 0 0 1 1 1 1 1 2 2 2 3 3 2 1 1
1 1 1 1 2 2 1 1 1 1 1 1 2 3 2 1 1 1 1 1 1 1 1 1 1 1 1 1 1 1 1 1 1 1 1 1 1 1 1 1 1 1 1
2 1 1 2 2 2 2 2 1 1 1 2 3 5 5 4 2 1 1 1 1 1 1 1 1 1 1 1 1 1 1 1 1 1 1 1 1 1 1 1 1 1 1
2 2 1 1 2 2 2 2 2 2 2 3 5 7 7 7 5 3 1 1 1 1 1 1 1 1 1 1 1 1 1 1 1 1 1 1 1 1 1 1 1 1 1
2 2 1 1 2 2 2 2 2 2 3 5 6 7 6 6 6 5 2 1 1 1 1 1 1 1 1 1 1 1 1 0 0 0 1 1 1 1 1 1 1 1 1
2 2 1 1 1 2 2 2 2 3 4 5 5 4 3 3 5 5 3 1 1 1 1 1 1 1 1 1 1 1 1 0 0 0 0 1 1 1 1 1 1 1 1
1 1 1 1 1 2 2 2 3 3 4 3 3 2 1 1 2 3 3 2 2 2 2 2 2 2 1 1 1 1 1 1 1 1 0 0 1 1 1 1 1 1 1
1 1 1 1 1 2 2 2 2 3 2 2 2 1 1 1 2 2 2 2 2 2 2 2 2 2 2 2 2 1 2 1 1 1 1 1 1 1 1 1 1 1 1
1 1 1 1 1 1 1 2 2 2 2 2 2 2 2 2 2 3 3 3 3 2 3 3 3 3 3 2 2 2 2 2 2 2 2 1 1 1 1 2 2 2 2
1 1 1 2 1 1 1 1 1 2 3 3 3 3 3 3 4 4 4 3 3 3 3 3 3 3 3 3 2 3 3 3 3 3 2 2 2 2 2 2 2 2 2
1 1 2 2 2 2 2 2 2 3 3 4 3 3 3 3 3 4 3 3 2 2 2 2 3 3 2 2 2 2 3 3 3 3 3 3 2 2 2 2 2 2 2
2 3 3 3 3 3 3 3 3 3 4 4 3 3 3 3 2 2 2 2 2 2 2 2 2 2 2 2 1 1 2 2 3 3 2 2 2 2 2 2 2 2 2
4 5 5 5 4 4 4 4 4 4 4 4 3 3 2 2 2 2 2 2 2 2 2 2 2 2 2 1 1 1 1 2 2 2 2 2 2 2 2 2 2 2 2
5 6 6 7 5 4 5 6 6 5 5 4 3 3 3 2 2 2 2 2 2 2 2 2 2 2 2 1 1 1 1 2 2 2 2 2 2 2 2 2 2 2 2
6 6 6 6 5 4 6 7 6 5 5 4 4 4 4 3 3 2 2 2 2 2 2 2 2 2 2 1 1 1 2 2 2 2 3 2 1 1 1 1 1 2 2
5 5 5 4 3 4 5 5 4 3 3 4 5 5 5 4 4 3 3 3 3 2 2 2 2 2 2 1 1 1 1 1 2 2 2 2 1 0 0 0 1 1 1
4 4 4 3 2 2 2 2 1 1 2 4 5 5 5 4 4 4 5 4 4 3 3 3 2 2 1 1 1 1 1 1 1 2 2 1 1 0 0 0 0 0 0
2 3 3 2 2 2 2 2 2 2 3 4 5 6 5 5 4 5 5 5 4 4 3 3 2 1 1 1 1 1 1 1 1 1 1 1 0 0 0 0 0 0 0
3 3 2 3 3 4 5 5 4 3 4 4 5 5 5 5 5 4 4 4 4 4 4 3 2 1 1 2 2 1 1 1 1 1 1 0 0 0 0 0 0 0 0
5 5 5 5 6 6 7 7 5 5 4 4 4 4 5 5 5 5 4 3 3 3 3 3 3 2 2 2 2 1 1 1 1 1 1 1 1 1 1 1 1 1 1
7 7 7 8 9 8 8 7 6 5 5 4 4 4 4 4 5 4 4 3 2 2 3 3 4 3 2 2 2 1 1 1 1 1 1 1 1 1 1 1 1 1 1
Wind_Speed
5 4 4 4 3 3 3 3 2 2 2 1 1 1 1 1 1 1 2 2 2 2 2 2 1 1 1 1 2 2 2 1 1 2 2 2 2 2 1 1 1 1 2
3 3 4 4 4 4 4 4 3 3 2 2 1 1 1 0 0 1 2 2 2 1 1 1 1 1 1 1 1 2 1 0 1 1 1 2 3 3 2 1 1 2 1
7 6 5 5 4 5 6 5 4 3 3 2 2 2 2 2 2 2 1 2 1 1 1 1 1 1 1 1 1 2 2 1 0 1 2 1 1 2 2 2 1 2 1
7 6 6 6 6 6 5 5 4 3 2 3 2 3 2 1 1 1 1 2 2 1 0 1 1 1 1 1 2 2 2 2 1 0 1 1 2 1 2 2 2 2 2
8 8 8 8 6 6 5 4 4 3 3 3 3 3 2 1 0 0 1 1 2 1 1 1 1 1 1 1 1 1 1 1 2 1 1 1 1 1 1 2 3 2 2
7 7 6 5 4 4 4 4 4 3 3 3 3 3 3 2 1 1 0 1 1 1 1 0 0 1 1 1 1 1 1 1 1 1 1 2 2 2 2 2 2 2 3
6 6 6 6 6 6 5 4 5 4 3 3 3 3 3 3 3 2 1 1 1 1 2 1 0 1 1 1 1 1 1 1 1 1 1 1 2 2 2 2 1 2 2
5 6 7 7 7 6 5 5 5 4 3 3 3 2 3 2 2 2 2 2 2 2 1 1 1 1 1 1 1 1 1 1 1 1 1 1 1 2 2 2 2 1 2
5 5 5 5 5 5 6 6 6 4 4 3 2 2 2 2 2 2 2 2 2 1 1 1 1 0 1 1 1 1 1 1 1 1 1 1 1 1 2 2 2 2 2
3 4 4 4 4 4 4 5 5 5 3 3 2 2 2 2 2 2 2 2 2 1 0 0 0 0 1 1 1 1 1 1 1 1 1 1 1 1 1 2 2 2 2
3 4 3 3 3 3 3 3 4 3 3 3 2 2 2 2 2 2 2 2 1 1 1 1 1 0 0 1 1 1 1 1 1 1 1 1 1 1 1 1 1 2 2
2 2 3 3 4 4 3 3 3 3 3 3 2 2 2 1 2 2 2 1 1 1 1 1 1 1 1 1 1 2 2 2 2 2 2 2 1 1 1 1 2 2 2
1 1 2 3 4 4 4 4 3 3 3 3 2 2 1 1 2 2 2 1 1 1 1 1 1 2 2 1 2 2 2 2 3 2 2 3 2 2 2 2 2 2 2
1 1 1 3 3 4 4 4 4 3 3 3 3 2 2 2 2 2 1 1 1 1 1 1 2 2 2 2 2 2 2 2 2 2 3 3 3 4 4 3 3 2 2
1 0 1 2 2 2 3 4 3 3 3 3 3 3 2 1 1 1 1 0 0 1 1 1 1 1 1 2 2 3 3 2 2 3 3 4 3 4 3 3 3 3 3
1 1 1 1 2 3 3 4 3 3 4 4 3 2 2 1 1 1 1 0 1 1 1 1 1 2 2 3 3 2 2 2 2 3 3 4 4 4 5 5 4 4 4
1 1 1 1 1 2 3 4 4 3 4 4 3 2 2 2 2 2 1 1 1 1 1 2 2 2 3 3 3 2 2 2 2 3 3 3 3 3 4 4 4 4 5
1 1 1 1 1 1 1 2 2 2 3 2 2 2 2 2 2 1 2 2 1 1 2 2 2 2 3 3 3 2 2 2 2 3 3 4 4 3 3 3 3 4 4
2 1 1 1 0 0 1 2 2 2 2 2 3 3 3 2 2 2 2 2 1 1 2 2 2 2 3 3 3 2 1 2 3 3 3 3 3 4 3 2 3 4 4
1 0 0 1 1 0 1 3 2 2 2 3 3 3 3 3 3 3 3 2 1 2 1 1 1 1 2 3 3 2 1 2 2 3 3 3 3 4 2 2 3 4 5
1 1 1 0 0 1 2 3 2 3 3 2 2 2 2 3 3 2 1 1 1 1 1 1 1 2 2 4 3 2 1 2 2 2 3 3 4 3 3 3 3 5 4
1 1 1 1 1 1 2 1 2 2 1 1 1 1 1 2 1 1 1 1 1 1 1 1 2 2 2 3 3 3 2 3 2 2 2 3 4 3 4 3 4 4 3
0 0 1 1 2 1 2 2 2 0 1 1 0 0 0 0 0 1 1 1 1 1 1 1 2 3 2 3 4 3 3 3 2 2 3 4 4 3 3 3 4 2 2
1 0 1 1 1 1 1 1 1 2 2 2 1 0 0 0 1 0 1 1 1 1 1 2 2 3 2 2 2 2 2 2 2 2 3 3 2 2 3 3 2 2 2
1 0 1 1 1 1 0 0 1 2 2 2 1 1 1 1 0 0 1 1 2 2 3 2 2 2 3 4 3 1 1 2 1 1 1 2 2 2 2 2 2 2 2
0 0 0 1 1 1 1 1 0 2 2 1 1 1 1 1 1 1 1 2 2 2 3 3 3 2 4 3 2 2 2 2 1 1 1 2 2 3 3 3 3 3 3
Wind_Direction
217 197 189 179 167 167 168 176 169 165 125 101 99 70 13 356 10 11 14 28 55 77 100 107 93 99 105 111 111 107 83 49 45 48 14 4 12 17 11 12 12 2 356
205 206 194 182 181 184 188 187 186 179 171 162 149 145 135 60 20 6 15 17 40 61 94 116 126 129 125 117 124 131 112 52 56 88 52 358 355 2 11 14 12 352 349
202 200 202 202 190 196 198 194 193 188 184 163 115 86 63 39 30 17 356 350 17 40 73 137 152 165 157 161 171 162 151 169 7 113 130 130 277 320 337 349 359 348 342
199 198 203 206 204 205 195 190 188 183 181 156 146 151 152 168 223 232 310 340 9 13 39 119 151 181 179 183 204 169 163 158 182 176 150 169 172 176 315 327 336 333 327
200 198 202 205 204 196 188 185 180 179 174 164 165 161 170 186 200 73 7 347 353 358 357 87 123 168 180 191 192 161 162 170 176 177 164 140 130 166 185 290 321 332 314
204 204 202 194 193 186 182 174 175 184 177 173 172 171 178 177 178 241 278 318 326 329 328 31 144 180 188 196 196 184 180 188 185 180 169 166 173 188 183 227 274 298 301
196 199 194 194 194 188 188 179 176 190 188 183 186 188 188 183 199 221 219 240 286 283 279 271 211 198 214 204 169 171 208 199 190 189 198 197 205 179 170 181 235 270 291
194 201 203 200 199 194 186 181 185 194 189 189 195 190 185 186 216 220 211 222 238 251 254 240 231 202 186 168 147 167 221 179 196 209 198 209 226 192 182 180 181 256 286
190 199 198 188 191 190 189 182 181 186 192 189 186 190 187 184 209 234 219 232 244 251 237 216 215 190 157 157 150 168 207 174 195 210 212 220 227 204 206 194 186 187 249
192 194 184 171 175 188 188 174 173 183 183 173 183 202 203 204 198 193 229 245 248 253 225 205 180 141 128 145 156 182 202 169 242 220 225 255 246 227 208 199 203 200 207
200 196 181 159 151 146 152 166 171 170 172 177 183 217 215 208 195 210 225 235 243 233 226 219 203 192 180 177 181 209 198 207 261 271 249 271 257 235 222 190 193 201 201
192 176 159 141 145 158 164 171 177 180 185 174 180 217 223 210 216 231 230 215 219 225 221 206 213 231 232 217 214 226 217 217 240 258 258 270 264 250 240 216 226 230 219
137 121 132 153 168 177 181 184 188 193 183 163 170 194 214 215 238 246 238 206 200 219 216 193 219 237 239 235 232 227 229 231 239 243 244 255 250 259 255 242 241 244 240
100 124 166 182 182 185 185 187 196 194 173 161 172 190 209 218 236 241 232 211 194 209 228 225 234 240 242 246 238 229 238 248 258 257 252 250 238 243 247 246 244 242 243
47 162 209 205 190 183 186 190 195 187 173 170 183 202 205 197 214 248 250 252 235 243 244 252 275 268 248 257 250 243 241 245 270 279 269 255 246 242 243 248 242 235 239
310 315 295 226 208 202 197 188 194 188 171 179 197 201 180 179 209 234 238 228 257 281 283 262 266 271 272 284 264 244 246 237 245 266 278 273 264 265 260 259 250 234 233
264 258 248 235 245 232 205 198 195 177 173 187 193 184 184 208 226 234 238 244 245 250 265 256 245 253 268 273 264 245 235 244 248 253 270 280 287 278 272 273 275 264 251
258 264 295 319 289 241 203 184 163 161 179 194 199 191 189 213 227 238 252 257 248 242 248 256 257 262 280 291 280 266 244 252 263 260 258 264 283 289 279 280 283 275 267
260 247 222 227 236 230 181 143 143 158 176 206 207 202 197 204 208 225 250 254 234 247 255 261 253 257 288 295 280 271 259 265 276 275 271 269 279 295 294 275 282 288 289
306 323 37 66 64 309 143 139 154 162 205 221 219 210 199 201 211 219 229 234 217 230 251 279 284 276 290 295 284 266 244 269 286 296 293 284 284 295 291 251 260 275 280
330 71 96 62 274 245 142 149 165 206 220 212 206 210 210 211 215 212 212 221 228 253 275 294 303 288 282 292 285 264 224 241 271 286 293 293 297 284 279 261 252 260 272
356 49 61 351 341 51 105 150 213 235 216 169 166 207 225 231 224 188 216 223 214 233 269 275 293 290 285 282 281 267 246 240 239 263 284 296 310 302 286 268 268 270 274
314 58 105 8 356 44 114 167 244 240 104 98 143 215 295 267 259 188 206 231 228 224 257 261 271 287 293 293 288 276 266 254 245 266 282 301 307 301 293 293 292 282 270
310 324 113 94 336 350 101 179 182 139 126 136 160 144 96 322 325 278 193 199 222 232 251 262 275 286 296 296 295 295 290 286 278 293 310 316 314 308 307 314 303 283 269
293 126 158 214 266 287 305 297 167 145 140 146 155 150 165 212 289 297 240 224 233 218 220 239 243 260 276 275 255 241 271 269 272 320 349 350 337 328 324 313 306 300 292
260 104 245 255 266 257 275 292 212 158 148 148 168 191 214 230 221 264 316 332 270 274 246 241 235 250 256 279 274 260 271 272 218 125 309 301 297 296 301 301 301 296 288